Theta_e
327 328 330 327 325 324 322 320 318 314 311 313 314 315 314 315 314 310 308 311 317 321 324 325 327 327 324 322 322 320 320 318 316 316 316 316 316 317 317 318 318 320 322
327 327 323 320 318 318 316 315 310 307 305 310 312 311 310 307 302 301 301 305 312 316 320 321 319 318 318 317 316 316 315 314 313 312 311 312 312 312 313 314 315 315 317
324 322 318 314 312 313 313 312 307 304 303 308 309 308 304 299 297 298 300 301 305 311 311 311 311 312 313 314 314 313 312 311 310 309 309 309 310 310 311 311 312 312 313
319 316 311 308 306 306 309 305 305 301 300 306 306 305 300 296 296 297 298 299 301 303 303 302 303 305 308 310 310 310 309 309 308 307 307 308 308 309 309 309 309 310 311
311 308 304 303 302 301 302 303 300 299 298 303 303 300 297 294 294 295 296 296 297 297 294 294 294 297 301 304 306 307 307 307 306 305 305 306 306 307 307 307 308 308 309
303 302 301 300 299 299 298 300 298 298 297 301 301 299 296 293 293 293 294 296 294 292 291 289 288 288 294 298 301 303 305 305 304 303 304 304 304 305 305 306 306 307 307
300 300 300 298 296 296 295 296 298 296 294 296 303 298 295 291 290 291 294 294 293 291 289 287 286 285 286 291 296 299 301 302 302 302 302 302 302 303 303 304 304 305 305
298 298 297 296 295 295 294 293 295 296 294 293 293 298 297 295 291 288 291 292 291 290 288 286 284 284 284 285 288 294 296 298 299 299 299 300 300 301 302 302 303 303 303
296 296 295 295 294 294 292 291 292 293 292 292 291 293 290 289 290 294 287 289 290 289 287 286 284 283 283 284 285 288 291 293 295 296 297 297 298 299 300 300 301 301 302
296 295 294 293 293 292 290 290 290 290 291 289 291 290 289 288 286 285 290 286 288 288 286 285 283 282 282 282 283 286 287 289 291 292 293 294 295 297 297 298 299 299 300
293 293 293 292 290 289 289 289 288 288 288 287 287 287 287 286 285 284 282 283 285 286 286 284 283 282 281 281 282 284 285 287 288 289 290 291 292 294 295 296 297 297 298
291 291 290 289 288 288 287 287 287 286 286 286 285 284 283 282 280 281 281 280 280 284 286 284 282 281 281 281 281 283 283 285 286 288 288 289 290 291 293 294 295 295 296
288 288 288 287 287 286 286 286 285 285 285 284 283 282 282 281 282 282 281 279 279 281 284 284 283 281 280 280 280 282 281 283 285 286 287 287 288 289 290 291 292 292 293
287 287 286 286 286 286 285 285 284 284 283 282 281 281 281 280 281 281 279 277 276 278 280 280 283 281 280 280 280 281 279 281 284 285 285 285 286 287 288 289 290 290 290
286 286 285 285 285 284 284 283 282 282 282 282 281 281 280 279 279 280 280 279 277 274 275 279 278 280 280 280 280 279 278 279 282 283 283 284 285 286 286 287 287 288 288
285 284 284 283 283 283 283 282 282 281 280 280 280 279 279 278 278 279 279 278 278 276 273 278 278 279 279 278 279 278 277 278 279 280 281 282 283 284 284 285 286 286 286
283 283 282 282 282 281 281 281 280 280 279 279 278 278 278 278 277 278 279 278 277 276 274 276 278 279 277 277 277 277 277 277 278 278 279 281 281 282 282 282 283 283 284
282 281 281 280 280 280 280 280 279 279 278 277 277 277 277 278 277 277 277 276 276 277 275 274 276 276 276 277 276 275 275 276 276 277 279 279 279 280 280 280 280 281 281
281 280 280 279 279 279 279 279 278 278 278 277 276 276 276 277 276 277 277 276 277 277 277 275 274 276 276 275 274 275 275 275 275 276 276 276 277 277 277 278 278 278 278
280 279 279 279 279 278 278 278 278 277 277 277 277 276 276 276 276 276 276 276 277 276 276 275 274 274 273 274 274 272 271 273 272 272 273 274 274 274 274 275 275 274 275
279 279 279 279 279 279 278 277 277 277 277 276 276 276 277 277 277 277 277 277 277 276 275 274 272 272 271 271 270 271 269 270 270 271 270 270 269 269 270 271 271 273 275
279 279 278 279 279 280 282 280 277 276 276 276 275 276 276 276 276 276 277 279 279 276 274 272 271 269 270 271 270 268 268 266 264 270 266 265 268 267 268 269 271 273 273
277 277 277 277 278 278 281 281 280 277 276 276 275 275 275 276 275 275 276 278 278 277 276 273 270 270 269 269 268 266 265 265 263 265 264 262 265 265 267 268 270 271 273
276 276 276 276 276 277 280 280 279 278 277 276 276 275 275 274 275 276 276 276 274 273 272 273 272 270 269 269 268 267 265 263 263 264 264 259 265 264 265 266 269 270 271
275 275 275 275 275 275 278 279 279 277 276 275 276 275 275 274 276 278 276 271 270 270 272 272 271 270 270 269 269 265 261 260 258 260 263 262 262 261 263 263 266 268 269
275 275 275 274 274 274 276 278 278 277 275 274 274 275 276 276 277 278 274 269 267 268 266 265 264 265 265 265 266 264 262 259 258 257 263 260 260 260 257 262 263 263 264
Wind_Speed
2 1 3 4 4 4 4 4 5 5 6 6 7 8 10 10 10 7 7 20 20 19 17 18 21 24 22 21 20 20 21 22 22 22 21 22 22 22 22 22 21 23 23
3 4 4 5 5 4 4 4 5 6 6 6 8 10 11 10 11 10 7 10 22 18 21 25 24 22 21 20 19 20 20 21 22 21 21 20 20 21 21 21 21 22 23
5 5 5 5 4 3 6 5 6 6 6 6 9 9 10 11 10 11 9 8 10 22 25 24 24 23 22 21 21 22 21 21 22 22 21 21 21 21 21 21 22 22 22
6 6 5 5 4 4 4 5 4 6 5 6 7 7 8 9 11 11 10 9 8 9 16 23 22 22 22 22 21 21 21 21 21 21 22 21 21 22 22 22 22 22 22
8 7 5 5 5 5 5 4 6 4 5 5 8 7 6 7 8 8 11 11 11 10 8 17 21 23 22 22 22 22 22 21 22 22 22 22 22 22 22 22 22 22 22
9 7 7 7 6 6 5 4 6 6 4 3 7 7 6 6 8 8 9 9 11 12 11 12 10 12 21 22 22 23 23 23 22 22 22 22 23 23 23 22 23 23 23
8 8 6 7 7 7 6 5 2 6 6 5 3 5 6 8 10 8 7 7 10 10 10 10 8 8 9 20 22 23 24 23 22 23 22 22 23 23 22 23 22 23 23
8 8 8 7 6 5 6 7 6 1 4 6 2 0 4 3 5 8 6 7 8 7 8 10 12 12 10 9 15 23 24 24 23 23 23 23 23 23 23 23 23 23 23
10 9 9 7 7 5 5 6 6 5 3 6 11 3 1 1 1 2 7 5 7 6 7 8 11 12 11 9 11 15 23 24 23 24 23 23 23 23 23 24 23 23 23
10 9 9 8 7 5 6 7 6 6 3 4 3 7 8 3 1 2 2 5 5 6 7 6 8 10 11 9 13 19 23 24 22 23 22 23 23 22 22 23 23 23 23
10 10 8 8 7 6 8 9 9 10 7 5 4 3 4 4 5 3 1 3 3 4 4 5 7 8 11 11 10 14 22 23 21 22 22 22 22 22 23 23 22 23 23
6 7 8 7 9 8 8 8 9 10 9 9 8 8 6 4 3 3 2 3 4 2 2 4 5 7 9 9 12 19 19 21 19 20 20 21 22 22 24 22 23 23 23
4 5 7 9 8 8 9 8 9 10 9 9 9 7 6 5 3 2 3 2 3 3 2 2 3 5 9 8 10 19 18 21 21 22 22 23 23 22 25 23 23 24 25
5 8 9 9 9 8 9 9 8 7 9 8 10 8 6 5 5 5 3 3 2 2 3 4 2 6 10 10 12 19 14 21 23 23 24 25 24 25 26 23 24 24 28
7 9 10 9 8 9 9 9 7 8 8 8 8 7 6 5 5 4 4 3 2 3 3 2 4 8 10 10 13 13 15 21 23 23 26 26 25 27 26 24 26 27 29
9 8 9 9 8 9 8 8 7 7 8 6 5 6 5 4 4 3 3 3 2 2 4 3 6 10 11 9 12 13 14 19 20 22 26 26 28 27 26 26 26 30 30
9 9 9 8 8 8 7 8 8 7 8 7 5 5 5 4 3 3 1 2 2 3 5 8 8 10 12 12 11 11 12 11 10 21 23 26 27 25 24 28 31 31 30
9 9 8 8 7 7 6 7 7 6 6 6 5 5 4 2 3 2 2 3 4 4 6 11 11 10 12 12 12 13 10 10 11 17 25 27 24 24 26 30 32 30 29
9 8 7 8 7 7 7 6 6 6 5 5 4 4 3 1 2 3 4 4 5 6 6 8 11 9 10 10 12 11 11 11 11 20 23 21 20 23 32 31 29 28 28
8 8 7 7 7 6 6 6 5 5 4 3 3 1 1 2 3 6 6 6 7 8 7 9 10 10 11 11 10 11 11 11 12 13 15 17 19 29 28 27 26 27 27
7 7 7 6 5 5 4 5 4 4 3 2 1 1 2 4 4 8 6 7 8 8 8 9 10 11 11 10 12 11 13 13 12 12 10 13 13 12 13 18 20 24 29
6 6 5 5 5 4 7 7 4 3 1 1 2 3 4 2 6 9 10 12 11 8 9 10 10 11 13 12 11 12 12 12 11 5 15 14 12 12 12 12 25 29 34
5 5 4 4 4 2 5 5 4 2 2 2 3 3 3 3 6 7 11 13 6 8 12 12 12 11 14 15 15 14 14 13 13 12 14 14 11 11 12 13 28 31 32
4 3 3 2 3 2 3 1 1 2 2 3 3 3 3 5 7 10 10 4 5 7 9 8 10 13 14 14 13 12 14 14 11 10 12 10 11 13 13 12 29 26 26
3 2 2 3 2 1 4 4 4 2 4 3 3 2 3 6 11 16 6 6 8 9 8 12 16 19 18 17 15 9 9 10 12 12 11 10 11 16 15 13 11 24 32
3 2 2 1 2 2 4 5 4 2 4 3 3 3 5 9 14 14 8 8 10 8 8 10 10 11 12 11 15 9 9 9 10 9 7 10 12 11 11 10 13 15 13
Wind_Direction
121 115 102 75 59 50 58 56 49 51 47 46 44 57 65 67 67 66 55 38 44 48 53 54 53 50 43 38 36 35 35 28 22 19 16 14 8 5 6 2 357 2 5
151 116 91 69 57 50 59 68 57 48 43 43 63 71 73 71 66 65 60 51 44 44 56 54 47 44 43 40 37 36 29 26 23 19 16 13 10 8 6 4 5 1 360
107 103 88 70 53 46 70 70 69 63 62 64 72 74 75 68 64 59 60 59 49 50 57 57 50 47 43 40 37 35 31 28 24 19 18 15 13 11 8 7 5 4 1
97 91 82 65 51 56 72 64 52 60 59 81 92 86 79 72 67 64 62 62 66 63 59 56 50 45 41 38 37 34 31 26 23 18 16 13 11 10 8 6 3 360 358
79 84 80 65 57 57 55 56 54 47 44 74 92 87 74 71 70 67 67 66 66 66 61 56 48 40 36 34 31 28 26 24 22 16 14 12 10 8 6 3 1 359 357
76 82 80 73 69 69 57 62 72 63 63 76 104 90 79 65 69 63 68 72 70 63 58 52 42 35 33 29 28 26 23 22 20 16 13 10 7 5 2 1 0 358 355
80 89 82 78 71 65 53 37 33 61 47 4 128 101 84 77 73 70 69 74 74 69 63 55 46 36 26 26 21 22 19 17 16 13 11 10 5 4 1 360 358 355 353
79 82 79 72 59 71 50 35 24 35 69 26 30 128 163 138 78 64 66 72 74 71 65 60 50 41 30 25 18 17 15 12 12 11 8 7 4 0 358 357 354 352 351
70 69 68 68 62 52 62 55 30 31 100 53 46 26 143 107 107 151 71 80 80 73 67 59 51 40 34 29 19 12 10 9 8 6 4 3 360 357 355 352 350 349 348
73 69 73 70 66 58 51 53 47 46 74 73 79 54 59 45 60 153 142 58 69 66 67 60 51 39 30 24 17 8 6 3 2 1 359 357 354 353 350 349 346 346 343
62 67 66 65 67 65 65 67 60 57 54 71 57 35 49 56 48 43 329 353 20 44 75 62 49 35 26 20 9 2 0 357 355 355 353 351 349 347 346 344 342 342 341
80 77 85 81 80 83 80 75 72 70 73 72 69 59 53 40 23 15 357 330 334 356 107 80 50 35 23 9 2 354 353 349 347 349 350 347 345 341 343 340 340 339 337
91 97 97 90 89 90 88 87 81 72 68 72 69 69 64 57 42 47 39 6 333 331 317 122 61 33 16 360 352 347 344 347 343 347 347 345 342 339 339 335 338 337 337
122 104 96 94 96 99 93 88 83 81 81 78 78 74 77 60 50 46 46 12 322 289 309 341 3 16 360 348 339 342 339 342 340 343 343 342 337 336 334 330 333 334 330
109 102 99 100 99 93 90 91 89 92 85 80 77 80 73 56 57 63 63 43 20 324 307 347 326 350 339 335 334 334 336 331 335 336 339 336 333 333 330 329 327 330 326
112 109 105 100 97 90 93 96 95 92 92 83 79 84 83 63 57 53 61 45 20 299 281 306 318 320 323 320 323 323 323 321 324 328 333 329 328 326 325 328 324 325 322
119 109 104 105 102 101 98 97 93 96 95 96 88 89 84 65 57 44 26 12 337 290 281 304 308 316 314 315 314 314 315 313 315 322 319 320 322 321 320 321 324 318 317
105 107 107 108 108 100 97 98 99 103 106 101 89 78 70 58 45 16 345 324 317 306 289 305 312 317 316 317 316 313 312 311 317 313 315 318 318 316 317 320 313 311 312
103 110 116 110 107 102 102 98 103 107 108 99 87 68 36 321 351 357 335 321 322 312 309 308 312 315 317 319 320 313 317 315 315 315 314 316 312 311 316 310 306 309 312
122 119 111 109 107 116 114 112 110 115 116 110 90 138 354 309 347 345 325 320 318 317 317 314 316 320 322 326 315 321 321 320 319 315 314 317 316 311 306 308 307 309 306
121 120 119 117 121 115 123 118 112 101 126 156 178 336 343 343 341 333 322 312 314 320 323 325 321 319 323 329 329 330 318 320 321 309 327 313 310 305 303 304 300 304 306
125 129 129 133 134 134 123 110 115 154 127 39 326 342 329 276 327 322 315 311 314 333 331 328 322 319 324 332 325 324 320 322 317 329 322 306 311 304 304 307 304 310 307
126 126 137 151 147 124 151 158 157 91 14 320 288 308 300 319 313 309 297 305 341 349 339 329 321 330 328 327 325 324 318 316 312 317 310 302 311 300 308 304 304 302 304
127 145 140 140 157 195 216 174 330 170 265 265 242 269 281 318 320 316 313 359 9 342 331 333 338 328 322 324 326 318 324 311 305 307 315 287 321 305 314 300 301 302 306
117 135 160 167 182 357 345 299 275 252 272 257 286 281 290 313 321 321 17 13 340 337 347 341 331 328 330 332 330 334 324 325 319 322 311 307 320 308 312 298 302 304 307
144 151 139 115 52 341 311 289 288 298 295 298 297 295 298 330 321 334 13 3 339 342 345 336 329 326 328 324 333 330 323 313 311 311 328 316 310 328 312 301 308 301 296